{"data":{"norad_id":59083,"intl_designator":"2024-041K","name":"STARLINK-31252","alt_names":[],"object_type":"PAYLOAD","status":"ACTIVE","operator":null,"country":"US","launch_date":"2024-02-29","launch_site_code":"AFETR","launch_vehicle":null,"mission":null,"orbit_class":"UNKNOWN","rcs_meters":null,"size_class":null,"mass_kg":null,"dimensions":null,"purposes":["comms"],"wikipedia_slug":null,"has_3d_model":false,"image_url":null,"decayed_at":null,"tle_current":{"epoch":"2026-05-25T01:15:55.484064Z","epoch_age_seconds":66458,"freshness":"FRESH","line1":"1 59083U 24041K   26145.05272551  .00000647  00000+0  33032-4 0  9992","line2":"2 59083  42.9999 156.2572 0001122 273.2087  86.8636 15.27577014126951","mean_motion":15.27577014,"eccentricity":0.0001122,"inclination_deg":42.9999,"raan_deg":156.2572,"arg_perigee_deg":273.2087,"mean_anomaly_deg":86.8636,"bstar":3.3032e-5,"rev_number":12695,"period_min":94.266932979655,"perigee_km":482.28821112925,"apogee_km":483.8278632956,"semimajor_km":6861.1950372124,"source":"CELESTRAK","updated_at":"2026-05-25T13:38:18.829552Z"}}}